This is the latest recevied weather packets stored in our database for station/object N1ADJ. If no packets are shown the sender has not sent any weather packets the latest 10 day(s).
| Time | Temp. | Humidity | Pressure | Rain* | Wind** | Luminosity | Snow |
|---|---|---|---|---|---|---|---|
| 1777740317 | 10° C | 89% | 1011.6 hPa | 0 mm | - | - | - |
| 1777739417 | 10° C | 87% | 1011.9 hPa | 0 mm | - | - | - |
| 1777735816 | 8.33° C | 93% | 1012 hPa | 0.25 mm | - | - | - |
| 1777731318 | 7.78° C | 92% | 1013.1 hPa | 0.76 mm | - | - | - |
| 1777730421 | 7.22° C | 91% | 1013.2 hPa | 0.51 mm | - | - | - |
| 1777729819 | 7.22° C | 91% | 1013.3 hPa | 0.51 mm | - | - | - |
| 1777729239 | 7.22° C | 91% | 1013.5 hPa | 0 mm | - | - | - |
| 1777728024 | 7.22° C | 91% | 1013.6 hPa | 0.25 mm | - | - | - |
| 1777727119 | 7.22° C | 92% | 1013.3 hPa | 0.25 mm | - | - | - |
| 1777726519 | 7.22° C | 91% | 1013.2 hPa | 0.25 mm | - | - | - |
| 1777726224 | 7.22° C | 91% | 1013.2 hPa | 0.25 mm | - | - | - |
| 1777722620 | 6.11° C | 93% | 1013.4 hPa | 0 mm | - | - | - |
| 1777720220 | 5° C | 93% | 1013.3 hPa | 0 mm | - | - | - |
| 1777719019 | 4.44° C | 93% | 1013.1 hPa | 0 mm | - | - | - |
| 1777718120 | 3.89° C | 93% | 1012.6 hPa | 0 mm | - | - | - |
| 1777715118 | 2.78° C | 89% | 1012.2 hPa | 0 mm | - | - | - |
| 1777714861 | 2.78° C | 89% | 1012.2 hPa | 0 mm | - | - | - |
| 1777713318 | 3.89° C | 89% | 1012.1 hPa | 0 mm | - | - | - |
| 1777708239 | 3.33° C | 90% | 1012.5 hPa | 0 mm | - | - | - |
| 1777706717 | 3.33° C | 90% | 1012.3 hPa | 0 mm | - | - | - |
| 1777706419 | 3.33° C | 90% | 1012.3 hPa | 0 mm | - | - | - |
| 1777701917 | 1.67° C | 86% | 1011.8 hPa | 0 mm | - | - | - |
| 1777701319 | 1.67° C | 85% | 1011.7 hPa | 0 mm | - | - | - |
| 1777700418 | 1.67° C | 84% | 1011.7 hPa | 0 mm | - | - | - |
| 1777699522 | 2.22° C | 84% | 1011.5 hPa | 0 mm | - | - | - |
* Rain latest hour (hover to see other rain measurements)
** Current wind speed in m/s (hover to see current wind gust speed)